Location: Nantong Television Tower
(32.0188°N, 120.8512°E)
Time: 14:26:25
(UTC+08:00)

Daily predictions for brighter satellites

Satellite Brightness Start Highest point End
(mag) Time Altitude Azimuth Time Altitude Azimuth Time Altitude Azimuth
CZ-3A R/B 4.0 17:44:47 10° SSW 17:48:43 29° SE 18:02:41 10° E
MOS 1 4.4 18:04:55 10° SSE 18:10:26 58° ENE 18:15:59 10° N
Cosmos 2237 Rocket 2.2 18:05:32 10° NNW 18:11:08 68° ENE 18:16:43 10° SSE
ORS 1 (USA 231) 4.1 18:10:33 10° WNW 18:13:01 73° SSW 18:15:28 10° ESE
SL-16 R/B 3.1 18:10:28 10° N 18:15:17 28° ENE 18:20:02 10° ESE
SKYMED 2 4.4 18:13:25 10° N 18:17:41 56° WNW 18:21:55 10° SSW
ALOS 2.3 18:14:03 10° SSE 18:18:42 87° E 18:23:24 10° N
Cosmos 2297 Rocket 3.1 18:13:17 10° SW 18:18:47 54° WNW 18:24:19 10° N
Cosmos 405 3.4 18:19:43 10° SSW 18:23:11 65° W 18:26:40 10° N
Cosmos 1437 Rocket 4.0 18:20:27 10° SE 18:23:36 22° E 18:26:47 10° NE
Meteor 1-14 Rocket 4.3 18:18:48 10° S 18:24:28 67° E 18:30:17 10° NNE
Cosmos 44 4.0 18:23:34 10° N 18:28:16 36° ENE 18:33:07 10° SE
Meteor 1-20 Rocket 4.3 18:23:10 10° S 18:28:41 59° E 18:34:21 10° NNE
EO 1 Del DPAF 3.2 18:25:11 10° NNE 18:29:01 90° ESE 18:32:49 10° SSW
Sakura Rocket 4.2 18:33:42 10° WSW 18:38:51 56° SSE 18:44:34 16° E
Cosmos 2034 Rocket 4.4 18:36:12 10° N 18:42:09 40° E 18:48:01 10° SSE
USA 215 3.2 18:36:06 10° NE 18:42:40 81° SE 18:49:11 10° SW
Lacrosse 5 2.5 18:38:20 10° NW 18:43:18 59° SW 18:48:15 10° SSE
Cosmos 2263 Rocket 3.6 18:45:39 10° SE 18:48:17 16° ESE 18:48:17 16° ESE
FREGAT/IRIS 2.6 18:46:20 10° SSE 18:49:12 51° ENE 18:52:05 10° N
Cosmos 158 Rocket 4.5 18:44:46 10° SSW 18:49:34 57° WNW 18:54:23 10° N
Cosmos 2333 Rocket 4.5 18:45:42 10° NW 18:50:24 28° WSW 18:55:05 10° SSW
SPOT 3 Rocket 3.8 18:45:29 10° S 18:50:39 75° WSW 18:55:52 10° NNW
Tiangong 2 1.6 18:47:37 10° NW 18:50:39 42° NNE 18:51:44 30° ENE
Cosmos 1378 Rocket 3.5 18:46:17 10° N 18:50:39 60° E 18:55:02 10° SSE
Cosmos 1452 Rocket 3.4 18:46:31 10° NNW 18:51:47 77° ENE 18:57:01 10° SSE
Cosmos 1048 Rocket 4.0 18:46:46 10° SSW 18:52:07 89° NW 18:57:26 10° NNE
Meteor 1-18 Rocket 4.1 18:46:50 10° N 18:52:22 64° E 18:57:50 10° SSE
Cosmos 1782 Rocket 3.6 18:49:10 10° S 18:53:31 55° E 18:57:50 10° NNE
Iridium 4 Rocket 3.1 18:48:51 10° N 18:53:32 63° E 18:57:50 10° S
Sich 1 Rocket 3.5 18:52:13 10° S 18:56:44 85° E 19:01:14 10° N
Geosat 4.5 18:52:28 11° NE 18:56:54 37° ESE 19:01:31 10° S
HJ-1C 3.4 19:00:50 10° SSE 19:04:11 59° ENE 19:07:34 10° N
Meteor 1-11 Rocket 4.1 19:00:50 10° SSE 19:05:53 37° E 19:11:01 10° NNE
SJ-6B 2.8 19:02:38 10° SSE 19:06:16 52° ENE 19:09:59 10° N
Cosmos 2227 4.1 19:02:12 10° S 19:07:53 70° ESE 19:13:35 10° NNE
Cosmos 1420 Rocket 4.0 19:06:39 10° NNW 19:11:58 86° WSW 19:17:16 10° SSE
Okean 2 Rocket 3.1 19:08:00 10° S 19:12:15 53° E 19:16:32 10° NNE
H-2A R/B 4.0 19:08:59 10° S 19:12:43 44° W 19:16:28 10° NNW
Gbstr 26 Del rocket 2.8 19:09:10 10° SW 19:12:52 70° NW 19:14:23 34° NNE
CENTAUR R/B 3.7 19:07:58 10° WSW 19:13:27 40° NW 19:19:41 10° NNE
OAO 2 Rocket 3.4 19:11:38 10° W 19:16:32 65° N 19:18:14 39° ENE
COSMOS 2455 3.0 19:10:58 10° S 19:16:39 47° ESE 19:19:17 29° NE
H-2A R/B 3.9 19:13:09 10° SSW 19:17:49 15° S 19:19:24 13° SSE
ERS-2 3.1 19:18:50 10° S 19:22:24 47° W 19:25:58 10° NNW
Okean 1 3.5 19:21:57 10° NNW 19:25:54 69° W 19:29:50 10° S
CZ-2D R/B 3.2 19:29:49 42° S 19:31:03 84° WSW 19:34:58 10° NNW
Tsikada Rocket 4.1 19:24:56 10° S 19:31:19 80° W 19:37:46 10° N
SeaSat 1 2.4 19:31:46 57° E 19:32:06 58° ENE 19:36:57 10° NNW
ARGOS Delta rocket 4.0 19:28:38 10° N 19:33:22 66° WNW 19:37:51 10° SSW
Envisat 2.9 19:32:43 10° SSE 19:37:48 89° ENE 19:42:54 10° NNW
Cosmos 44 Rocket 3.8 19:35:36 10° NW 19:40:37 62° WSW 19:43:15 28° S
Cosmos 921 Rocket 3.3 19:36:14 10° NNW 19:40:43 69° WSW 19:42:16 39° S
Cosmos 494 Rocket 4.3 19:49:23 10° SSW 19:54:33 64° WNW 19:57:07 29° N
SL-16 R/B 3.8 19:54:20 10° NW 19:59:18 32° WSW 20:04:14 10° SSW
Resurs 01 Rocket 3.7 20:05:34 19° NNW 20:05:34 19° NNW 20:06:51 10° NNW
Meteor 1-13 Rocket 4.4 20:02:36 10° NNW 20:08:04 67° W 20:08:16 66° WSW
Cosmos 1603 4.5 20:12:28 10° NNW 20:16:20 45° NNW 20:16:20 45° NNW
Cosmos 2263 Rocket 3.6 20:27:04 10° SW 20:30:08 31° WSW 20:30:08 31° WSW
CZ-3C R/B 3.6 20:34:06 10° WSW 21:25:56 - E 20:38:34 43° S
CZ-4C R/B 4.3 20:50:55 10° NNW 20:54:09 29° NNW 20:54:09 29° NNW
